Miscellaneous Local Product
Issued by NWS North Platte, NE

Home | Current Version | Previous Version | Text Only | Print | Product List | Glossary On
Versions: 1 2 3 4 5 6 7 8 9 10 11 12 13 14 15 16 17 18 19 20 21 22 23 24 25 26 27 28 29 30 31 32 33 34 35 36 37 38 39 40 41 42 43 44 45 46 47 48 49 50
000
AXUS43 KLBF 291810
MISLBF


WESTERN AND NORTH CENTRAL NEBRASKA HOURLY WEATHER ROUNDUP
NATIONAL WEATHER SERVICE NORTH PLATTE NE
100 PM CDT FRI APR 29 2016

NOTE: "FAIR" INDICATES FEW OR NO CLOUDS BELOW 12,000 FEET WITH NO
SIGNIFICANT WEATHER AND/OR OBSTRUCTIONS TO VISIBILITY.

NOTE: STATIONS NOT REPORTING VARIABLES SUCH AS SKY/WEATHER OR
PRESSURE ARE PROVIDED BY RAWS AND APRS NETWORKS AND ARE NOT UNDER
NATIONAL WEATHER SERVICE QUALITY CONTROL.

...OBSERVATIONS IN AND NEAR THE EASTERN PANHANDLE OF NEBRASKA...

CITY           SKY/WX    TMP DP  RH WIND       PRES   REMARKS
PINE RIDGE     CLOUDY    42  34  73 NE9       30.05R
CHADRON        CLOUDY    44  36  73 NE9       30.05R
ALLIANCE       CLOUDY    43  36  76 NE16      30.01S
SIDNEY         CLOUDY    42  34  73 NE13      29.99F
CRESCENT LAKE    N/A     42  34  74 E10         N/A
BIG SPRINGS      N/A     44  36  74 NE12        N/A
$$

...OBSERVATIONS IN NORTHERN NEBRASKA AND FAR SOUTHERN SOUTH DAKOTA...

CITY           SKY/WX    TMP DP  RH WIND       PRES   REMARKS
WINNER         CLOUDY    42  37  82 NE13      30.10R
VALENTINE      CLOUDY    41  36  82 E15       30.08R
THEDFORD       CLOUDY    42  38  86 E9        30.08R
AINSWORTH      DRIZZLE   40  38  94 E8        30.08R WCI  35
O`NEILL        CLOUDY    41  39  93 E8        30.10S FOG
ORD            CLOUDY    43  39  86 E10       30.06F
BROKEN BOW     CLOUDY    43  38  82 E13       30.05F
BUTTE            N/A     39  37  93 E12         N/A  WCI  32
HALSEY           N/A     41  38  87 NE6         N/A
CHAMBERS         N/A     42  39  88 N6          N/A
EWING            N/A     42  40  94 E7          N/A
$$

...OBSERVATIONS IN SOUTHWEST NEBRASKA AND FAR NORTHEAST COLORADO...

CITY           SKY/WX    TMP DP  RH WIND       PRES   REMARKS
IMPERIAL       LGT RAIN  41  36  82 E18       30.00F
OGALLALA       CLOUDY    42  33  71 E14       30.02F
NORTH PLATTE   CLOUDY    42  36  79 NE14      30.03F
MCCOOK         LGT RAIN  43  37  79 E17       30.02S
LEXINGTON      CLOUDY    43  38  83 E12       30.05S
PAXTON           N/A     43  38  83 NE14        N/A
STAPLETON        N/A     40  38  91 NE3         N/A
GOTHENBURG       N/A     43  36  76 NE10        N/A
CALLAWAY         N/A     41  38  87 E5          N/A
$$

...OBSERVATIONS IN CENTRAL LINCOLN COUNTY AREA...

CITY           SKY/WX    TMP DP  RH WIND       PRES   REMARKS
N.P. AIRPORT   CLOUDY    42  36  79 NE14      30.03F
N.P. DOWNTOWN    N/A     42  37  84 NE10        N/A
N.P. SOUTHEAST   N/A     42  37  82 NE7G16      N/A
N.P. HILLCREST   N/A     42  38  87 E13G20      N/A
$$

...SOME OBSERVATIONS FROM AROUND THE REGION...

CITY           SKY/WX    TMP DP  RH WIND       PRES   REMARKS
DENVER         SNOW      33  30  88 E7        29.94S VSB 1/4 WCI  27
LARAMIE        LGT SNOW  32  28  85 S14       29.89F FOG     WCI  22
CHEYENNE       LGT SNOW  34  32  92 E10       29.94F FOG     WCI  26
SCOTTSBLUFF    CLOUDY    43  34  70 E5        30.01S
RAPID CITY     CLOUDY    41  36  82 N5        30.08F
BISMARCK       SUNNY     57  31  37 NE14      30.13F
PIERRE         CLOUDY    51  36  56 E17G24    30.09F
SIOUX FALLS    CLOUDY    46  39  76 E15       30.13F
OMAHA          CLOUDY    48  40  73 NE9       30.08S
GRAND ISLAND   CLOUDY    45  38  76 NE9       30.05F
KANSAS CITY    CLOUDY    54  46  74 E10       30.01F
WICHITA        LGT RAIN  50  47  89 NE17      29.84F FOG
OKLAHOMA CITY  CLOUDY    64  61  90 E20       29.68F
DALLAS         PTSUNNY   83  72  69 S10       29.66F
AMARILLO       CLOUDY    53  47  79 NE8       29.77S
DODGE CITY     LGT RAIN  42  40  92 NE30G38   29.81F
HAYS           CLOUDY    43  34  70 N13       29.96F
GOODLAND       LGT RAIN  38  36  92 E23G31    29.93S WCI  27
$$




USA.gov is the U.S. government's official web portal to all federal, state and local government web resources and services.